Tracking 18987 objects as of 17-Feb-2018
HD Live streaming from Space Station
objects crossing your sky now

NOAA 16 DEB

Track NOAA 16 DEB now!
10-day predictions


NORAD ID: 41348
Int'l Code: 2000-055HR
Perigee: 825.3 km
Apogee: 885.3 km
Inclination: 98.8 °
Period: 101.9 minutes
Semi major axis: 7226 km
RCS: Unknown
Launch date: September 21, 2000
Source: United States (US)
Launch site: AIR FORCE WESTERN TEST RANGE (AFWTR)

Note: This is SATELLITE DEBRIS
aabbcc
Your satellite tracking list
Your tracking list is empty




NASA's NSSDC Master Catalog

Two Line Element Set (TLE):
1 41348U 00055HR  18047.41353996 +.00001116 +00000-0 +61402-3 0  9995
2 41348 098.8479 119.0516 0041529 228.1193 131.6434 14.13289521106002
Source of the keplerian elements: AFSPC